Flag for U.S.A. Weather past 2 weeks in Austin, Texas, U.S.A.

Now
35 °F

Fog.


Feels Like: 31 °F
Forecast: 35 / 47 °F
Wind: 5 mph from North

Location: Camp Mabry / Austin City

Current Time: Mar 1, 2015 at 3:33:58 AM

Latest Report: Mar 1, 2015 at 2:51 AM


Visibility: 4 mi

Pressure: 30.28 "Hg

Humidity: 96%

Dew point: 34 °F

Location of AustinLocation

Historic Weather in Austin — Graph

°F

Austin temperature yesterday

Maximum temperature yesterday: 35 °F (at 11:51 AM)
Minimum temperature yesterday: 31 °F (at 12:51 AM)
Average temperature yesterday: 33 °F

Past Weeks' High & Low Weather Summary

 TemperatureHumidityPressure
High78 °F (Feb 14, 3:51 PM)97% (Feb 25, 6:51 AM)30.53 "Hg (Feb 25, 6:51 AM)
Low30 °F (Feb 23, 8:51 PM)23% (Feb 18, 1:51 PM)29.76 "Hg (Feb 20, 4:51 PM)
Average47 °F74%30.17 "Hg
* Reported Feb 14 1:51 AM — Mar 1 1:51 AM, Austin, Weather by CustomWeather, © 2015

Note: Actual official high and low records may vary slightly from our data, if they occured in-between our weather recording intervals... More about our weather records

Advertising

Austin weather history for previous 24 hours

 ConditionsComfort  
Time TempWeatherWind HumidityBarometerVisibility
1:51 AM
Sun, Mar 1
35 °FLight rain. Fog.5 mph96%30.29 "Hg3 mi
12:51 AM36 °FFog.5 mph97%30.29 "Hg3 mi
11:51 PM
Sat, Feb 28
35 °FLight rain. Fog.5 mph96%30.30 "Hg5 mi
10:51 PM35 °FFog.3 mph96%30.31 "Hg3 mi
9:51 PM35 °FFog.5 mph96%30.32 "Hg3 mi
8:51 PM35 °FFog.3 mph96%30.31 "Hg4 mi
7:51 PM35 °FFog.5 mph96%30.30 "Hg3 mi
6:51 PM35 °FLight rain. Fog.No wind96%30.29 "Hg4 mi
5:51 PM35 °FFog.5 mph96%30.29 "Hg2 mi
4:51 PM35 °FFog.6 mph96%30.29 "Hg2 mi
3:51 PM35 °FFog.5 mph96%30.29 "Hg2 mi
2:51 PM35 °FFog.7 mph92%30.29 "Hg1 mi
1:51 PM35 °FFog.6 mph88%30.30 "Hg5 mi
12:51 PM34 °FFog.6 mph92%30.32 "Hg6 mi
11:51 AM35 °FFog.5 mph88%30.35 "Hg6 mi
10:51 AM33 °FFog.6 mph88%30.38 "Hg6 mi
9:51 AM32 °FIce fog.7 mph92%30.37 "Hg6 mi
8:51 AM32 °FIce fog.6 mph92%30.37 "Hg4 mi
7:51 AM31 °FLight freezing rain. Ice fog.3 mph96%30.36 "Hg2 mi
6:51 AM31 °FIce fog.5 mph92%30.35 "Hg5 mi
5:51 AM31 °FLight freezing rain. Ice fog.6 mph89%30.33 "Hg4 mi
4:51 AM31 °FOvercast.6 mph85%30.34 "Hg8 mi
3:51 AM31 °FOvercast.6 mph85%30.34 "Hg10 mi
Weather by CustomWeather, © 2015

See weather overviewHow to use our weather pages